History for Miami, FL

Tuesday, December 25, 2012 — View Current Conditions

Jump to Data:

Date:
Airport Code:
Recently Viewed Airport Codes: KMIA
Daily Summary
  Actual Average Record
Temperature
Mean Temperature 69°F 69°F  
Max Temperature 78°F 77°F 85°F (1941)
Min Temperature 59°F 61°F 30°F (1989)
Degree Days
Heating Degree Days 0 2  
Month to date heating degree days 12 22  
Since 1 July heating degree days 13 25  
Cooling Degree Days 4 6  
Month to date cooling degree days 209 170  
Year to date cooling degree days 4649 4542  
Growing Degree Days 18 (Base 50)    
Moisture
Dew Point 60°F    
Average Humidity 71    
Maximum Humidity 90    
Minimum Humidity 52    
Precipitation
Precipitation 0.00 in 0.05 in 1.17 in (1915)
Month to date precipitation 0.51 1.69  
Year to date precipitation 86.94 61.55  
Snow
Snow 0.00 in in in ()
Month to date snowfall 0.0  
Since 1 July snowfall 0.0  
Snow Depth 0.00 in    
Sea Level Pressure
Sea Level Pressure 30.00 in    
Wind
Wind Speed 6 mph (SE)    
Max Wind Speed 16 mph    
Max Gust Speed 30 mph    
Visibility 10 miles    
Events      
T = Trace of Precipitation, MM = Missing Value Source: NWS Daily Summary

Show full METARS

(help) - Comma Delimited File

Hourly Observations

Time(EST) Temperature Dew Point Humidity Sea Level Pressure Visibility Wind Direction Wind Speed Gust Speed Precipitation Events Conditions
12:53 AM 63.0°F 57.0°F 81% 30.03 in 10.0 miles Calm Calm - N/A   Scattered Clouds
1:53 AM 63.0°F 57.9°F 84% 30.03 in 10.0 miles Calm Calm - N/A   Scattered Clouds
2:53 AM 62.1°F 57.9°F 86% 30.01 in 10.0 miles Calm Calm - N/A   Scattered Clouds
3:53 AM 61.0°F 57.0°F 87% 30.00 in 10.0 miles Calm Calm - N/A   Clear
4:53 AM 60.1°F 55.9°F 86% 30.00 in 10.0 miles Calm Calm - N/A   Clear
5:53 AM 60.1°F 57.0°F 90% 30.01 in 10.0 miles Calm Calm - N/A   Scattered Clouds
6:53 AM 60.1°F 57.0°F 90% 30.02 in 10.0 miles Calm Calm - N/A   Scattered Clouds
7:53 AM 64.0°F 60.1°F 87% 30.03 in 10.0 miles Calm Calm - N/A   Scattered Clouds
8:53 AM 71.1°F 60.1°F 68% 30.05 in 10.0 miles Calm Calm - N/A   Scattered Clouds
9:53 AM 75.0°F 60.1°F 60% 30.06 in 10.0 miles Calm Calm - N/A   Scattered Clouds
10:53 AM 77.0°F 59.0°F 54% 30.05 in 10.0 miles ESE 10.4 mph - N/A   Mostly Cloudy
11:53 AM 78.1°F 59.0°F 52% 30.03 in 10.0 miles East 10.4 mph 17.3 mph N/A   Mostly Cloudy
12:53 PM 78.1°F 61.0°F 56% 29.99 in 10.0 miles ESE 13.8 mph 20.7 mph N/A   Mostly Cloudy
1:53 PM 77.0°F 60.1°F 56% 29.98 in 10.0 miles SE 12.7 mph 19.6 mph N/A   Mostly Cloudy
2:53 PM 77.0°F 61.0°F 58% 29.97 in 10.0 miles ESE 11.5 mph - N/A   Mostly Cloudy
3:53 PM 75.9°F 61.0°F 60% 29.96 in 10.0 miles SE 11.5 mph 18.4 mph N/A   Mostly Cloudy
4:53 PM 73.9°F 61.0°F 64% 29.97 in 10.0 miles SE 11.5 mph - N/A   Mostly Cloudy
5:53 PM 72.0°F 61.0°F 68% 29.96 in 10.0 miles SE 8.1 mph - N/A   Mostly Cloudy
6:53 PM 72.0°F 62.1°F 71% 29.96 in 10.0 miles SE 6.9 mph - N/A   Mostly Cloudy
7:53 PM 72.0°F 62.1°F 71% 29.98 in 10.0 miles ESE 8.1 mph - N/A   Mostly Cloudy
8:53 PM 72.0°F 63.0°F 73% 29.99 in 10.0 miles ESE 8.1 mph - N/A   Mostly Cloudy
9:53 PM 71.1°F 63.0°F 75% 29.98 in 10.0 miles SE 6.9 mph - N/A   Mostly Cloudy
10:53 PM 71.1°F 63.0°F 75% 29.97 in 10.0 miles SE 8.1 mph - N/A   Mostly Cloudy
11:53 PM 72.0°F 64.0°F 76% 29.96 in 10.0 miles SE 5.8 mph - N/A   Mostly Cloudy